User: anonymous   Login
Location: Salamanca
(40.9670°N, 5.6500°W)
Time: 13:17:57
(UTC+02:00)
Language:

Cosmos 1633 Rocket - Orbit

View from above orbital plane
View from above orbital plane
View from above satellite
View from above satellite

Ground track
Ground track

The orbit data is extracted from the following two-line orbital elements,

1 15593U 85020B   14296.83488434  .00000882  00000-0  10362-3 0  7993
2 15593 082.5373 087.6593 0011376 001.5238 110.8819 14.83786338600890
Epoch (UTC): 23 October 2014 20:02:14
Eccentricity: 0.0011376
inclination: 82.5373°
perigee height: 609 km
apogee height: 625 km
right ascension of ascending node: 87.6593°
argument of perigee: 1.5238°
revolutions per day: 14.83786338
mean anomaly at epoch: 110.8819°
orbit number at epoch: 60089

The dashed part of the orbit path shows where the satellite is in the earth's shadow,  

DLR